Temperature
10 10 10 10 10 10 10 10 10 10 12 13 14 14 15 15 15 16 16 16 16 16 16 16 16 16 16 16 16 16 16 16 16 16 16 16 16 16
9 9 10 10 10 10 10 10 10 10 11 12 13 13 14 14 15 16 16 16 16 16 16 16 16 16 16 16 16 16 16 16 16 16 16 16 16 16
9 9 9 9 9 10 10 10 10 10 10 11 12 13 13 14 15 15 16 16 16 16 16 16 16 16 16 16 16 16 16 16 16 16 16 16 16 16
8 8 8 9 9 9 9 10 10 10 10 10 11 12 13 14 14 15 15 15 15 16 16 16 16 16 16 16 16 16 16 16 16 16 16 16 16 16
8 8 8 8 8 9 9 9 10 10 10 10 11 11 12 13 13 14 15 15 15 15 15 15 15 15 15 15 15 15 15 15 16 16 16 16 16 16
8 8 8 8 8 8 8 9 9 9 10 10 10 11 11 12 12 13 14 14 15 15 15 15 15 15 15 15 15 15 15 15 15 15 16 16 16 16
8 8 8 8 8 8 8 8 9 9 9 10 10 10 11 11 12 12 13 13 13 14 14 15 14 14 15 15 15 15 15 15 15 15 15 16 16 16
8 8 8 7 7 7 8 8 8 9 9 9 10 10 10 11 12 12 12 12 13 13 13 13 13 14 14 14 14 15 15 15 15 15 15 15 16 15
8 8 8 7 7 7 7 8 8 8 9 9 9 10 10 11 11 12 12 12 13 13 13 12 12 13 13 13 14 14 14 15 15 15 15 15 15 15
7 7 7 7 7 7 7 7 8 8 8 9 9 10 10 10 10 11 11 12 12 12 12 12 12 12 12 12 13 13 14 14 14 15 15 15 15 15
7 7 7 7 7 7 6 7 7 8 8 8 9 9 10 10 10 10 11 11 11 12 12 12 11 11 11 11 12 12 13 13 14 14 14 14 14 14
7 7 7 6 7 6 6 6 7 7 8 8 9 9 9 9 10 10 10 11 11 11 11 11 11 11 11 11 11 11 12 12 13 13 13 13 13 13
6 6 6 6 6 6 6 6 7 7 8 8 8 9 9 9 9 10 10 11 11 11 12 11 11 11 11 11 10 11 11 12 12 12 12 12 13 13
6 6 6 6 6 6 6 6 7 7 7 8 8 8 9 9 9 10 10 10 11 11 12 12 12 12 12 11 11 11 11 11 11 12 12 12 12 12
6 6 6 6 6 6 6 6 6 6 7 7 8 8 9 9 9 9 10 10 10 10 11 11 12 12 12 12 12 12 11 11 11 11 12 12 12 12
6 6 6 6 6 6 6 6 6 6 7 7 8 8 9 9 9 9 9 9 10 10 10 11 11 11 12 12 12 12 12 11 11 11 11 11 11 12
6 6 6 6 6 6 6 6 6 6 7 7 7 8 8 8 9 9 9 9 9 10 10 10 10 11 11 11 11 11 12 11 11 11 11 11 11 11
6 6 6 6 6 6 6 6 6 7 7 7 7 8 8 8 8 9 9 9 9 9 10 10 10 10 10 10 11 11 11 11 11 11 11 11 11 11
6 6 6 6 6 6 6 6 6 6 7 7 7 8 8 8 8 8 9 9 9 9 10 10 10 10 10 10 10 11 11 11 11 11 11 11 11 11
6 6 6 6 6 6 6 6 6 6 7 7 7 7 8 8 8 8 8 9 9 9 9 10 10 10 11 11 11 11 11 11 11 11 11 11 10 10
6 6 6 6 6 6 6 6 6 7 7 7 7 7 8 8 8 8 8 8 9 9 9 9 10 10 10 10 11 11 11 11 11 11 11 11 10 10
7 7 7 7 7 7 7 7 7 7 7 7 7 8 8 8 8 8 8 8 8 9 9 9 9 9 10 10 10 11 11 11 10 10 10 11 11 11
7 7 7 7 7 7 7 7 7 7 7 8 8 8 8 8 8 8 8 8 8 9 9 9 9 9 9 9 10 10 10 10 10 10 9 9 10 10
Wind_Speed
6 6 5 5 5 5 5 4 3 4 4 3 2 2 3 4 8 11 13 17 21 22 23 24 25 27 29 29 29 29 28 27 26 26 26 26 26 25
5 6 6 5 5 5 5 5 5 5 4 3 3 4 5 4 4 7 9 13 18 20 21 22 23 25 26 27 27 27 26 25 24 24 24 24 23 23
6 6 7 7 6 5 5 5 5 5 6 5 3 4 4 4 2 1 2 4 8 15 18 19 20 21 23 24 25 25 24 24 23 22 22 22 22 21
8 8 9 7 7 6 5 6 6 6 5 6 4 3 3 3 1 1 1 2 3 9 13 15 16 18 20 21 22 23 22 22 21 21 21 20 20 19
9 9 9 8 8 7 7 7 6 6 6 5 4 3 3 1 0 2 3 2 3 6 8 10 12 14 16 18 19 20 20 20 20 20 19 18 17 17
9 10 10 10 10 9 8 8 8 7 6 6 5 4 3 2 2 2 3 2 3 4 6 7 9 10 12 15 16 17 18 18 18 17 16 16 15 15
10 10 10 12 13 11 8 8 8 7 7 6 5 3 4 3 3 3 3 4 3 3 5 4 5 5 6 10 12 15 16 16 15 15 15 15 14 13
12 11 10 12 14 15 16 14 12 10 9 7 6 6 5 4 4 4 4 5 4 4 4 3 3 5 3 5 10 14 15 15 15 15 15 15 14 13
12 11 10 10 12 11 12 14 14 17 15 10 9 8 6 6 5 7 6 6 4 7 5 3 3 3 3 6 12 14 15 16 16 16 16 16 16 15
12 12 12 12 12 11 11 11 11 11 13 12 10 10 8 6 5 5 6 5 4 4 4 4 3 3 3 6 10 14 15 16 17 18 18 18 18 17
12 12 12 13 14 14 13 12 11 10 11 13 13 11 11 9 6 5 6 8 5 4 2 4 4 3 3 3 7 12 15 16 18 19 20 20 21 19
9 10 13 14 14 14 13 12 12 11 9 9 10 11 10 10 10 8 7 8 6 4 4 5 5 5 3 2 3 6 10 13 16 18 20 21 20 14
8 8 8 12 15 15 14 12 13 11 9 9 8 8 7 7 8 9 8 8 7 4 8 6 6 5 5 4 2 2 4 6 8 10 15 17 15 13
8 7 8 11 12 12 11 13 14 11 7 7 7 8 8 8 8 9 9 8 5 5 10 9 6 7 7 5 4 3 3 5 7 7 9 12 11 11
7 9 10 11 10 8 11 13 11 8 8 8 9 9 8 8 7 7 8 7 5 7 12 7 7 9 7 6 7 6 5 4 6 7 7 7 7 7
5 6 8 8 6 6 6 8 8 8 9 9 9 8 6 6 7 7 7 8 6 4 6 7 9 11 6 7 8 8 7 8 8 8 7 6 6 7
5 4 3 3 3 3 4 5 6 7 8 7 7 7 7 6 6 6 7 8 8 8 7 5 5 5 5 8 8 10 10 8 9 10 7 6 5 7
4 4 4 4 4 4 4 5 5 6 7 7 7 7 7 7 6 6 7 9 9 8 8 8 8 5 4 4 3 10 9 8 10 10 8 7 7 6
4 5 5 5 5 5 5 5 5 6 6 6 7 7 7 7 6 7 8 9 9 9 10 10 10 9 8 7 4 6 10 10 11 10 9 6 7 8
5 6 6 6 5 5 5 5 5 5 5 6 6 6 7 7 6 7 7 9 9 9 10 11 11 10 10 9 7 6 12 13 11 12 10 6 4 7
6 6 6 6 6 5 5 5 5 6 6 7 6 7 7 7 7 7 7 10 10 9 12 12 10 9 7 9 7 5 8 11 11 9 11 9 7 7
6 6 6 6 6 6 6 6 6 6 7 7 7 7 7 7 7 8 8 9 9 9 9 9 11 10 6 7 9 9 9 9 8 11 14 8 7 10
6 6 6 6 6 5 5 6 7 7 7 8 8 7 8 7 7 7 8 9 9 10 11 11 10 8 6 7 9 9 13 12 9 9 8 3 3 6
Wind_Direction
260 255 250 254 249 247 246 246 267 296 302 299 309 350 321 268 243 224 221 219 214 210 207 205 204 203 204 204 205 206 208 210 212 214 216 218 217 219
262 260 256 255 252 246 243 242 237 253 276 299 313 323 327 312 270 234 220 211 207 204 203 203 202 202 201 200 201 203 206 208 210 212 213 215 216 219
265 261 262 259 255 250 242 240 240 238 262 281 281 308 313 318 326 296 214 193 197 196 196 197 197 198 198 197 198 200 202 204 206 208 210 212 214 217
260 259 263 264 255 251 242 240 239 235 246 274 289 297 300 315 312 98 82 116 153 177 185 188 192 194 194 194 196 197 199 201 203 206 207 208 210 214
254 252 256 256 257 253 245 242 241 240 233 249 272 282 278 273 149 104 104 95 96 128 149 165 178 184 186 188 191 193 195 197 200 203 205 205 208 211
253 249 250 248 249 250 248 243 240 239 234 237 252 262 263 244 193 172 148 126 109 106 108 117 140 155 169 176 182 185 187 189 192 194 197 198 199 201
260 252 248 247 246 245 243 238 233 232 229 230 237 242 246 231 200 177 168 142 113 129 122 110 118 123 139 156 168 173 176 180 183 185 186 186 185 185
267 261 253 255 256 253 248 241 227 224 224 222 226 230 235 233 206 182 165 164 165 157 132 105 102 108 100 128 150 158 162 166 169 171 169 166 164 164
265 262 261 256 246 244 249 251 243 230 221 216 220 222 225 222 209 194 189 180 166 159 137 112 93 95 71 105 135 144 150 153 154 154 153 150 149 150
261 258 255 255 248 240 244 248 249 242 230 226 224 223 221 217 215 209 187 153 115 139 129 122 113 96 73 77 116 134 140 143 145 145 143 141 140 138
265 260 253 252 244 234 237 242 245 246 240 226 220 222 215 209 203 189 182 174 164 154 123 125 129 107 82 69 83 116 129 134 137 137 137 137 134 127
271 265 256 250 244 233 233 232 236 239 234 225 221 223 220 215 206 202 193 189 169 158 161 134 138 138 120 81 73 99 110 118 127 133 136 138 136 127
272 271 263 251 246 238 228 229 229 227 225 221 219 216 212 210 209 209 202 198 185 164 164 148 146 145 133 131 111 93 115 124 116 123 133 139 142 139
265 268 267 262 255 244 231 229 225 220 222 215 214 213 209 209 208 207 206 202 195 173 168 159 151 158 143 141 146 133 112 124 128 129 130 128 121 125
262 264 270 269 261 252 235 225 216 213 211 210 213 212 210 207 202 201 202 191 168 159 167 170 154 157 151 147 149 151 146 148 146 143 145 149 150 147
282 280 277 272 255 243 234 220 214 209 206 209 209 207 198 196 200 196 195 184 169 155 155 157 156 156 148 144 151 159 159 158 162 157 149 150 157 164
293 283 271 265 258 246 230 214 207 204 207 209 206 200 193 194 199 198 193 184 179 170 158 137 117 106 118 145 153 159 156 152 161 158 156 159 171 177
266 262 266 260 256 246 234 220 209 205 203 201 203 199 193 194 196 196 195 191 183 175 166 154 141 122 101 55 120 159 159 155 158 162 160 163 174 182
243 253 254 253 251 246 234 224 218 208 199 197 196 195 195 196 194 196 197 191 185 175 168 165 165 161 167 171 167 171 162 155 156 165 172 170 176 176
238 248 251 250 245 238 233 227 222 209 205 204 197 194 195 194 194 198 200 194 183 172 170 174 180 180 183 170 156 169 170 160 162 167 168 155 124 128
253 250 249 248 246 238 230 226 222 213 207 202 202 199 196 194 197 201 199 189 181 177 179 182 178 149 117 117 122 137 167 171 162 163 161 156 154 162
259 253 250 246 243 238 227 222 218 216 208 205 204 202 198 196 199 201 197 189 185 180 176 163 154 153 150 159 156 148 151 159 152 156 163 156 167 180
259 254 249 244 238 232 227 221 218 213 208 206 204 200 197 197 200 200 196 188 179 172 163 161 162 166 163 155 149 147 152 155 155 157 169 178 156 155
Height
1480 1480 1480 1480 1480 1480 1480 1480 1479 1477 1475 1475 1476 1476 1477 1479 1481 1484 1487 1491 1495 1499 1503 1508 1512 1517 1522 1527 1533 1537 1542 1547 1551 1556 1559 1563 1566 1570
1474 1474 1474 1475 1475 1475 1476 1476 1476 1475 1473 1472 1472 1473 1474 1475 1477 1479 1482 1486 1489 1493 1498 1502 1507 1512 1517 1521 1527 1531 1536 1541 1545 1550 1554 1557 1561 1565
1468 1468 1468 1469 1469 1470 1471 1471 1471 1471 1470 1468 1469 1469 1470 1472 1473 1475 1478 1481 1485 1489 1493 1498 1502 1506 1511 1516 1521 1526 1530 1535 1540 1544 1548 1552 1555 1559
1462 1462 1462 1463 1463 1464 1465 1466 1467 1467 1467 1465 1465 1466 1467 1468 1470 1472 1474 1477 1481 1485 1489 1493 1497 1501 1506 1511 1515 1520 1525 1530 1534 1538 1543 1547 1550 1554
1456 1456 1456 1456 1456 1457 1459 1460 1461 1462 1462 1462 1462 1462 1463 1465 1467 1469 1471 1474 1477 1481 1485 1488 1492 1497 1501 1506 1510 1515 1520 1525 1529 1533 1538 1541 1545 1549
1450 1449 1449 1449 1450 1451 1452 1454 1455 1457 1458 1458 1458 1459 1460 1462 1464 1465 1468 1470 1473 1477 1481 1484 1488 1492 1496 1501 1505 1510 1515 1519 1524 1528 1533 1537 1540 1544
1443 1443 1443 1443 1443 1444 1445 1447 1449 1451 1452 1453 1454 1455 1457 1458 1460 1462 1465 1467 1470 1473 1477 1480 1484 1488 1492 1496 1501 1505 1510 1515 1519 1524 1528 1532 1536 1539
1436 1436 1436 1436 1436 1437 1439 1440 1442 1444 1446 1448 1449 1451 1452 1454 1456 1458 1461 1464 1467 1470 1474 1477 1481 1485 1488 1492 1497 1501 1506 1510 1515 1519 1524 1528 1531 1535
1429 1428 1428 1428 1429 1430 1431 1433 1435 1437 1440 1442 1444 1446 1448 1450 1452 1454 1457 1460 1463 1466 1471 1474 1478 1482 1485 1489 1493 1497 1502 1506 1511 1515 1519 1523 1527 1531
1422 1421 1420 1420 1421 1422 1423 1425 1427 1430 1433 1436 1438 1441 1444 1445 1447 1450 1453 1456 1459 1463 1467 1471 1476 1479 1483 1486 1490 1494 1498 1503 1508 1512 1516 1520 1523 1527
1415 1414 1413 1412 1413 1414 1415 1417 1419 1422 1426 1429 1432 1435 1438 1441 1442 1445 1447 1451 1454 1458 1463 1468 1472 1476 1480 1484 1487 1491 1496 1500 1504 1508 1512 1516 1520 1524
1408 1407 1406 1405 1405 1406 1407 1409 1411 1415 1419 1423 1426 1429 1432 1435 1437 1440 1443 1446 1449 1453 1458 1464 1468 1473 1478 1482 1485 1489 1493 1497 1501 1505 1509 1513 1517 1521
1401 1400 1399 1398 1398 1399 1400 1402 1404 1409 1412 1416 1419 1423 1426 1429 1432 1434 1438 1441 1444 1447 1452 1458 1463 1468 1472 1477 1481 1486 1490 1494 1498 1502 1507 1511 1515 1519
1396 1395 1393 1392 1392 1392 1394 1396 1399 1403 1405 1409 1412 1415 1419 1423 1426 1429 1433 1436 1440 1444 1449 1453 1458 1463 1467 1472 1476 1481 1486 1491 1495 1500 1504 1508 1512 1516
1392 1390 1389 1388 1387 1387 1389 1391 1394 1396 1399 1402 1405 1409 1413 1417 1421 1424 1427 1431 1435 1439 1444 1449 1454 1458 1464 1467 1471 1476 1482 1487 1492 1496 1501 1505 1509 1513
1389 1387 1386 1384 1384 1383 1384 1386 1388 1390 1393 1397 1400 1404 1408 1412 1415 1418 1421 1425 1429 1433 1438 1444 1449 1455 1459 1464 1469 1473 1478 1483 1488 1493 1498 1502 1507 1511
1385 1384 1383 1382 1381 1380 1380 1382 1384 1386 1389 1392 1396 1399 1402 1406 1409 1413 1416 1419 1423 1427 1432 1438 1444 1449 1456 1461 1465 1470 1474 1479 1484 1489 1494 1499 1503 1507
1382 1381 1380 1379 1378 1378 1378 1378 1380 1382 1385 1388 1391 1394 1398 1401 1404 1408 1411 1414 1418 1423 1427 1432 1438 1444 1450 1455 1461 1465 1470 1475 1480 1486 1491 1496 1500 1504
1379 1377 1377 1376 1376 1375 1375 1376 1377 1379 1382 1385 1388 1391 1394 1397 1400 1403 1406 1409 1413 1418 1422 1427 1433 1438 1444 1449 1455 1461 1466 1471 1476 1482 1487 1492 1497 1501
1375 1374 1373 1373 1373 1373 1373 1374 1375 1377 1379 1381 1384 1387 1390 1393 1395 1398 1401 1404 1408 1412 1417 1422 1427 1433 1439 1444 1450 1455 1461 1467 1472 1477 1483 1489 1494 1498
1371 1370 1370 1370 1370 1370 1370 1371 1372 1374 1376 1378 1381 1384 1386 1389 1392 1394 1397 1400 1403 1407 1412 1417 1423 1430 1436 1442 1447 1451 1457 1463 1469 1474 1479 1484 1489 1493
1368 1366 1366 1366 1366 1367 1367 1368 1369 1371 1373 1375 1378 1380 1383 1385 1388 1391 1393 1396 1399 1403 1408 1414 1419 1424 1430 1436 1441 1447 1452 1458 1464 1470 1477 1482 1484 1488
1364 1363 1362 1362 1363 1364 1364 1365 1366 1368 1370 1372 1374 1377 1379 1382 1385 1387 1390 1393 1396 1400 1405 1409 1414 1420 1426 1432 1437 1443 1448 1453 1459 1465 1471 1477 1482 1487